KE0LFX Weather Reports


Display with metric or nautical units.
time (UTC)temp
F
wind
direction
speed
MPH
gust
MPH
rain 1hr
in
rain 24hr
in
rain mn
in
humidity
%
barometer
mb
20260504050618 59 242 0.0 0.0 0.00 0.00 0.00 48 1010.4
20260504050115 59 242 0.0 0.0 0.00 0.00 0.00 48 1010.4
20260504045612 59 242 0.0 0.0 0.00 0.00 0.00 47 1010.3
20260504045107 60 243 0.0 1.0 0.00 0.00 0.00 48 1010.6
20260504044605 60 239 1.0 1.0 0.00 0.00 0.00 48 1010.7
20260504044102 60 242 1.0 1.0 0.00 0.00 0.00 47 1010.7
20260504043559 60 246 0.0 0.0 0.00 0.00 0.00 47 1010.7
20260504043056 60 247 1.0 1.0 0.00 0.00 0.00 47 1010.9
20260504042553 60 248 1.0 1.0 0.00 0.00 0.00 47 1010.9
20260504042049 61 253 1.0 1.0 0.00 0.00 0.00 45 1010.9
20260504041545 61 253 1.0 1.0 0.00 0.00 0.00 46 1011.0
20260504041041 61 265 0.0 0.0 0.00 0.00 0.00 45 1010.9
20260504040539 62 264 0.0 1.0 0.00 0.00 0.00 45 1011.0
20260504040035 62 266 1.0 1.0 0.00 0.00 0.00 44 1010.8
20260504035532 62 265 1.0 2.0 0.00 0.00 0.00 44 1010.9
20260504035028 62 264 3.0 3.0 0.00 0.00 0.00 44 1011.1
20260504034526 62 260 1.0 2.0 0.00 0.00 0.00 44 1011.2
20260504034023 63 263 1.0 1.0 0.00 0.00 0.00 44 1011.1
20260504033521 63 259 2.0 2.0 0.00 0.00 0.00 44 1011.1
20260504033018 63 272 1.0 2.0 0.00 0.00 0.00 44 1011.0
20260504032515 63 264 1.0 1.0 0.00 0.00 0.00 44 1011.2
20260504032011 64 268 3.0 3.0 0.00 0.00 0.00 43 1011.2
20260504031509 64 264 0.0 1.0 0.00 0.00 0.00 43 1011.0
20260504031005 64 251 1.0 1.0 0.00 0.00 0.00 43 1011.2
20260504030502 64 263 2.0 2.0 0.00 0.00 0.00 42 1011.2
20260504025958 64 263 1.0 2.0 0.00 0.00 0.00 42 1011.3
20260504025455 64 264 1.0 2.0 0.00 0.00 0.00 42 1011.0
20260504024952 65 260 1.0 2.0 0.00 0.00 0.00 41 1011.1
20260504024449 65 273 2.0 2.0 0.00 0.00 0.00 41 1011.1
20260504023946 66 258 0.0 0.0 0.00 0.00 0.00 40 1010.9
20260504023443 66 263 0.0 1.0 0.00 0.00 0.00 39 1011.1
20260504022938 66 255 1.0 1.0 0.00 0.00 0.00 39 1011.0
20260504022435 67 266 2.0 2.0 0.00 0.00 0.00 38 1010.8
20260504021931 67 277 3.0 5.0 0.00 0.00 0.00 37 1010.8
20260504021429 67 267 2.0 2.0 0.00 0.00 0.00 37 1010.7
20260504020926 67 261 4.0 5.0 0.00 0.00 0.00 36 1010.9
20260504020423 67 258 2.0 2.0 0.00 0.00 0.00 37 1010.6
20260504015919 67 244 1.0 1.0 0.00 0.00 0.00 37 1010.9
20260504015415 67 244 1.0 1.0 0.00 0.00 0.00 37 1010.5
20260504014911 68 259 2.0 2.0 0.00 0.00 0.00 35 1010.4
20260504014407 68 274 4.0 5.0 0.00 0.00 0.00 35 1010.4
20260504013904 68 278 2.0 2.0 0.00 0.00 0.00 35 1010.3
20260504013403 68 266 2.0 2.0 0.00 0.00 0.00 35 1010.4
20260504012859 69 255 1.0 1.0 0.00 0.00 0.00 35 1010.4
20260504012357 69 267 0.0 2.0 0.00 0.00 0.00 34 1010.5
20260504011854 69 266 1.0 1.0 0.00 0.00 0.00 34 1010.5
20260504011350 70 257 1.0 2.0 0.00 0.00 0.00 33 1010.1
20260504010846 70 265 0.0 1.0 0.00 0.00 0.00 33 1010.4
20260504010342 70 283 1.0 2.0 0.00 0.00 0.00 33 1010.3
20260504005839 71 262 6.0 7.0 0.00 0.00 0.00 32 1010.1
20260504005336 71 280 1.0 2.0 0.00 0.00 0.00 31 1010.4
20260504004833 72 266 1.0 2.0 0.00 0.00 0.00 31 1010.4
20260504004331 72 255 3.0 3.0 0.00 0.00 0.00 30 1010.2
20260504003827 73 265 2.0 2.0 0.00 0.00 0.00 31 1010.2
20260504003324 73 284 3.0 5.0 0.00 0.00 0.00 30 1010.2
20260504002821 73 289 3.0 3.0 0.00 0.00 0.00 30 1010.1
20260504002317 74 263 2.0 2.0 0.00 0.00 0.00 30 1010.1
20260504001810 74 282 3.0 3.0 0.00 0.00 0.00 30 1010.1
20260504001307 74 254 2.0 3.0 0.00 0.00 0.00 29 1010.0
20260504000804 74 270 2.0 2.0 0.00 0.00 0.00 29 1009.8
20260504000301 74 263 3.0 3.0 0.00 0.00 0.00 28 1010.2
20260503235759 74 263 1.0 1.0 0.00 0.00 0.00 29 1010.0
20260503235256 75 262 2.0 2.0 0.00 0.00 0.00 28 1009.7
20260503234753 75 272 4.0 6.0 0.00 0.00 0.00 29 1010.1
20260503234245 75 0 5.0 7.0 0.00 0.00 0.00 28 1009.9
20260503233742 75 322 1.0 2.0 0.00 0.00 0.00 28 1009.7
20260503233238 75 333 3.0 3.0 0.00 0.00 0.00 28 1009.9
20260503232735 75 337 5.0 7.0 0.00 0.00 0.00 28 1010.0
20260503232232 75 260 0.0 0.0 0.00 0.00 0.00 29 1010.1
20260503231730 75 324 1.0 2.0 0.00 0.00 0.00 29 1010.0
20260503231227 74 305 3.0 3.0 0.00 0.00 0.00 29 1010.2
20260503230722 75 279 3.0 5.0 0.00 0.00 0.00 29 1009.8
20260503230220 75 299 3.0 5.0 0.00 0.00 0.00 29 1010.0
20260503225712 76 321 3.0 5.0 0.00 0.00 0.00 29 1010.0
20260503225212 76 326 4.0 6.0 0.00 0.00 0.00 29 1010.0
20260503224709 76 248 3.0 5.0 0.00 0.00 0.00 29 1009.9
20260503224207 75 261 0.0 1.0 0.00 0.00 0.00 30 1010.0
20260503223705 75 257 7.0 10.0 0.00 0.00 0.00 30 1010.0
20260503223201 75 292 6.0 7.0 0.00 0.00 0.00 30 1010.1
20260503222658 76 320 5.0 7.0 0.00 0.00 0.00 30 1009.8
20260503222156 76 263 3.0 6.0 0.00 0.00 0.00 30 1009.8
20260503221654 75 259 4.0 6.0 0.00 0.00 0.00 30 1009.7
20260503221151 75 304 3.0 5.0 0.00 0.00 0.00 30 1009.7
20260503220648 76 275 3.0 3.0 0.00 0.00 0.00 31 1009.7
20260503220144 75 314 2.0 2.0 0.00 0.00 0.00 32 1009.8
20260503215642 75 250 6.0 8.0 0.00 0.00 0.00 31 1009.4
20260503215138 76 239 7.0 9.0 0.00 0.00 0.00 30 1009.4
20260503214637 75 1 4.0 5.0 0.00 0.00 0.00 31 1009.6
20260503214132 76 255 6.0 9.0 0.00 0.00 0.00 31 1009.7
20260503213632 76 263 5.0 9.0 0.00 0.00 0.00 32 1009.6
20260503213127 76 273 4.0 6.0 0.00 0.00 0.00 32 1009.6
20260503212625 76 315 6.0 8.0 0.00 0.00 0.00 31 1009.6
20260503212123 76 322 5.0 7.0 0.00 0.00 0.00 31 1009.6
20260503211621 77 298 3.0 6.0 0.00 0.00 0.00 31 1009.8
20260503211116 76 274 2.0 3.0 0.00 0.00 0.00 32 1009.6
20260503210612 75 254 4.0 5.0 0.00 0.00 0.00 32 1009.9
20260503210109 76 296 4.0 6.0 0.00 0.00 0.00 31 1009.7
20260503205604 76 337 10.0 17.0 0.00 0.00 0.00 32 1009.8
20260503205101 76 306 3.0 5.0 0.00 0.00 0.00 32 1009.7
20260503204558 75 304 1.0 2.0 0.00 0.00 0.00 32 1009.7
20260503204055 76 282 10.0 13.0 0.00 0.00 0.00 30 1010.0
20260503203552 76 268 6.0 9.0 0.00 0.00 0.00 30 1009.8
20260503203049 77 318 3.0 3.0 0.00 0.00 0.00 29 1009.9
20260503202547 76 220 1.0 1.0 0.00 0.00 0.00 31 1009.7
20260503202045 76 270 6.0 9.0 0.00 0.00 0.00 31 1010.1
20260503201543 75 259 5.0 9.0 0.00 0.00 0.00 33 1009.8
20260503201040 75 272 4.0 6.0 0.00 0.00 0.00 34 1010.0
20260503200536 75 315 3.0 5.0 0.00 0.00 0.00 35 1009.8
20260503200033 75 266 8.0 10.0 0.00 0.00 0.00 34 1010.0
20260503195530 75 284 6.0 8.0 0.00 0.00 0.00 35 1010.2
20260503195027 75 275 6.0 7.0 0.00 0.00 0.00 35 1010.0
20260503194525 74 255 6.0 8.0 0.00 0.00 0.00 35 1010.0
20260503194023 74 259 4.0 6.0 0.00 0.00 0.00 37 1010.1
20260503193521 74 265 5.0 7.0 0.00 0.00 0.00 38 1010.2
20260503193016 74 236 4.0 5.0 0.00 0.00 0.00 40 1010.3
20260503192512 73 270 12.0 17.0 0.00 0.00 0.00 38 1010.5
20260503192008 74 266 5.0 7.0 0.00 0.00 0.00 39 1010.5
20260503191505 74 260 4.0 6.0 0.00 0.00 0.00 40 1010.2
20260503191002 73 262 4.0 6.0 0.00 0.00 0.00 40 1010.4
20260503190459 72 248 5.0 7.0 0.00 0.00 0.00 41 1010.5
20260503185956 72 244 7.0 9.0 0.00 0.00 0.00 40 1010.7
20260503185452 72 267 3.0 5.0 0.00 0.00 0.00 42 1010.8
20260503184952 72 263 9.0 11.0 0.00 0.00 0.00 41 1010.7
20260503184448 72 208 8.0 10.0 0.00 0.00 0.00 42 1010.9
20260503183944 72 3 3.0 5.0 0.00 0.00 0.00 43 1010.8
20260503183441 71 196 4.0 6.0 0.00 0.00 0.00 44 1010.7
20260503182938 70 201 2.0 3.0 0.00 0.00 0.00 43 1011.1
20260503182437 70 197 2.0 3.0 0.00 0.00 0.00 47 1011.0
20260503181934 70 262 5.0 7.0 0.00 0.00 0.00 45 1011.4
20260503181431 69 264 7.0 8.0 0.00 0.00 0.00 44 1011.2
20260503180927 69 149 3.0 3.0 0.00 0.00 0.00 45 1011.2
20260503180427 69 218 8.0 11.0 0.00 0.00 0.00 45 1011.2
20260503175922 69 219 5.0 7.0 0.00 0.00 0.00 46 1011.4
20260503175420 68 265 6.0 9.0 0.00 0.00 0.00 45 1011.5
20260503174915 68 200 6.0 8.0 0.00 0.00 0.00 46 1011.6
20260503174415 68 223 5.0 7.0 0.00 0.00 0.00 46 1011.7
20260503173915 68 190 7.0 10.0 0.00 0.00 0.00 46 1011.7
20260503173411 67 282 4.0 7.0 0.00 0.00 0.00 47 1011.7
20260503172908 67 228 4.0 6.0 0.00 0.00 0.00 49 1011.9
20260503172405 66 198 2.0 2.0 0.00 0.00 0.00 49 1011.9
20260503171901 66 239 2.0 2.0 0.00 0.00 0.00 48 1012.1
20260503171358 65 226 9.0 11.0 0.00 0.00 0.00 48 1012.2
20260503170855 65 266 5.0 6.0 0.00 0.00 0.00 48 1012.0
20260503170352 65 203 6.0 8.0 0.00 0.00 0.00 49 1012.3
20260503150744 59 184 5.0 9.0 0.00 0.00 0.00 53 1013.6
20260503150240 58 215 3.0 5.0 0.00 0.00 0.00 53 1013.6
20260503140205 54 177 3.0 6.0 0.00 0.00 0.00 57 1014.0
20260503131134 53 198 1.0 1.0 0.00 0.00 0.00 58 1014.4
20260503130632 53 177 1.0 2.0 0.00 0.00 0.00 59 1014.7
20260503130129 53 199 3.0 6.0 0.00 0.00 0.00 60 1014.6
20260503110522 53 200 1.0 1.0 0.00 0.00 0.00 56 1015.6
20260503090409 52 234 2.0 2.0 0.00 0.00 0.00 57 1017.6
20260503081335 52 222 1.0 1.0 0.00 0.00 0.00 55 1017.8
20260503080832 52 256 0.0 1.0 0.00 0.00 0.00 55 1017.8
20260503080329 52 224 0.0 0.0 0.00 0.00 0.00 56 1018.0
20260503072800 52 180 2.0 3.0 0.00 0.00 0.00 55 1017.5
20260503072257 52 239 3.0 3.0 0.00 0.00 0.00 55 1017.7
20260503071752 52 212 2.0 3.0 0.00 0.00 0.00 54 1017.8
20260503071250 52 205 2.0 2.0 0.00 0.00 0.00 54 1017.9
20260503070746 52 198 2.0 2.0 0.00 0.00 0.00 54 1017.7
20260503070244 52 204 5.0 6.0 0.00 0.00 0.00 54 1018.0
20260503060203 52 219 3.0 3.0 0.00 0.00 0.00 52 1018.2
20260503054649 52 252 2.0 3.0 0.00 0.00 0.00 51 1018.4
20260503054147 52 224 2.0 3.0 0.00 0.00 0.00 50 1018.4
20260503053645 52 232 3.0 5.0 0.00 0.00 0.00 51 1018.6
20260503053143 52 235 2.0 3.0 0.00 0.00 0.00 50 1018.7
20260503052639 52 213 3.0 3.0 0.00 0.00 0.00 50 1018.5
20260503052135 52 223 3.0 5.0 0.00 0.00 0.00 50 1018.6
20260503051631 52 211 1.0 2.0 0.00 0.00 0.00 49 1018.8
20260503051129 52 207 2.0 2.0 0.00 0.00 0.00 49 1018.9